Location: Feydey
(46.3431°N, 7.0106°E)
Time: 02:51:20
(UTC+00:00)

Cosmos 2237 Rocket - Visible Passes

Search period start: 23 October 2021 00:00
Search period end: 02 November 2021 00:00
Orbit: 833 x 851 km, 71.0° (Epoch: 22 October)

Date Brightness Start Highest point End Pass type
(mag) Time Alt. Az. Time Alt. Az. Time Alt. Az.
23 Oct 4.8 03:43:57 10° N 03:46:27 13° NE 03:48:57 10° ENE visible
23 Oct 3.1 05:26:21 10° NNW 05:31:56 53° ENE 05:37:27 10° SE visible
24 Oct 4.9 03:29:12 10° N 03:31:32 12° NE 03:33:50 10° ENE visible
24 Oct 3.1 05:11:30 10° NNW 05:17:03 50° ENE 05:22:32 10° SE visible
25 Oct 4.9 03:14:27 10° NNE 03:16:35 12° NE 03:18:43 10° NE visible
25 Oct 3.2 04:56:38 10° NNW 05:02:09 48° ENE 05:07:37 10° SE visible
26 Oct 4.9 02:59:43 10° NNE 03:01:39 12° NNE 03:03:34 10° NE visible
26 Oct 3.2 04:41:46 10° NNW 04:47:16 46° ENE 04:52:42 10° SE visible
27 Oct 5.0 02:45:01 10° NNE 02:46:42 11° NNE 02:48:23 10° NE visible
27 Oct 3.3 04:26:54 10° NNW 04:32:22 44° NE 04:37:45 10° SE visible
28 Oct 5.0 02:30:21 10° NNE 02:31:46 11° NNE 02:33:11 10° NE visible
28 Oct 3.3 04:12:03 10° NNW 04:17:28 43° NE 04:22:50 10° SE visible
29 Oct 5.0 02:15:44 10° NNE 02:16:49 10° NNE 02:17:54 10° NE visible
29 Oct 3.4 03:57:12 10° NNW 04:02:35 41° NE 04:07:54 10° SE visible
29 Oct 4.2 18:51:07 10° S 18:52:07 15° S 18:52:07 15° S visible
30 Oct 5.1 02:01:18 10° NNE 02:01:52 10° NNE 02:02:27 10° NE visible
30 Oct 3.4 03:42:21 10° NNW 03:47:41 39° NE 03:52:57 10° ESE visible
30 Oct 2.8 05:26:32 10° NW 05:31:42 37° WSW 05:36:48 10° S visible
30 Oct 3.3 18:36:17 10° S 18:39:07 28° SSE 18:39:07 28° SSE visible
30 Oct 4.9 20:20:49 10° WSW 20:21:03 11° WSW 20:21:03 11° WSW visible
31 Oct 3.5 03:27:54 12° NNW 03:32:46 38° NE 03:38:00 10° ESE visible
31 Oct 2.7 05:11:37 10° NW 05:16:50 38° WSW 05:22:00 10° S visible
31 Oct 2.6 18:21:28 10° S 18:26:02 42° SE 18:26:02 42° SE visible
31 Oct 4.3 20:05:52 10° WSW 20:07:58 21° WSW 20:07:58 21° WSW visible
01 Nov 3.5 03:14:21 19° N 03:17:52 36° NE 03:23:03 10° ESE visible
01 Nov 2.6 04:56:42 10° NW 05:01:58 40° WSW 05:07:11 10° S visible
01 Nov 2.5 18:06:39 10° S 18:11:58 42° ESE 18:12:50 39° E visible
01 Nov 3.8 19:50:55 10° WSW 19:54:44 31° W 19:54:44 31° W visible
